User: anonymous
Location: Montr�al
(45.5000°N, 73.5830°W)
Time: 22:26:52
(UTC-04:00)
Language:

Cosmos 2369 - Orbit

View from above orbital plane
View from above orbital plane
View from above satellite
View from above satellite

Ground track
Ground track

The orbit data is extracted from the following two-line orbital elements,

1 26069U 00006A   14264.66896091 -.00000125  00000-0 -41226-4 0  3545
2 26069 070.9923 292.7911 0013349 298.3065 194.5475 14.13234559754906
Epoch (UTC): 21 September 2014 16:03:18
Eccentricity: 0.0013349
inclination: 70.9923°
perigee height: 838 km
apogee height: 858 km
right ascension of ascending node: 292.7911°
argument of perigee: 298.3065°
revolutions per day: 14.13234559
mean anomaly at epoch: 194.5475°
orbit number at epoch: 75490

The dashed part of the orbit path shows where the satellite is in the earth's shadow,  

DLR